Wind_Speed
36 36 36 37 38 38 39 40 41 42 43 45 46 47 47 48 48 48 47 46 45 44 43 40 38 38 36 35 34 33 32 32 30 29 27 26 26 25 25 24 24 23 22
33 34 34 35 35 36 37 38 39 40 41 43 44 45 46 47 48 48 47 46 46 44 43 42 40 38 36 35 33 32 31 30 30 29 28 26 26 27 26 27 26 26 25
30 30 30 31 31 31 32 33 34 35 37 38 40 42 43 45 46 47 47 46 46 44 43 41 40 38 37 35 33 32 31 31 29 29 28 26 25 27 27 27 27 27 26
25 25 25 24 25 26 28 29 30 31 32 33 34 36 39 40 41 43 44 44 44 43 41 42 41 39 37 36 33 32 31 30 29 28 28 27 26 26 26 27 27 28 27
20 19 19 20 21 21 23 23 24 24 25 26 28 29 32 34 36 38 39 39 40 40 39 39 39 38 37 36 34 33 31 30 29 29 28 27 27 26 26 25 26 27 27
17 17 17 17 18 19 19 19 19 19 20 21 22 24 25 27 29 32 34 35 36 36 36 37 37 36 35 36 35 34 32 31 31 29 29 28 27 27 27 26 26 27 28
16 16 17 16 17 17 17 17 16 16 17 18 18 18 20 21 22 25 27 28 30 31 33 34 35 35 33 33 34 35 33 32 32 32 29 29 29 29 29 28 29 29 29
17 17 17 17 17 17 16 16 15 15 15 14 14 14 14 14 15 18 21 23 25 27 29 31 32 34 33 33 32 33 33 31 30 30 30 30 29 29 30 30 30 31 31
18 18 18 18 19 19 18 17 16 15 15 14 13 11 10 10 11 13 16 19 20 23 25 27 29 31 32 32 32 33 33 33 31 29 30 30 30 29 29 29 29 30 30
19 19 20 20 21 21 20 19 18 16 16 15 14 12 10 9 9 9 10 13 16 19 21 23 25 28 29 30 31 31 32 33 31 31 30 30 31 31 30 29 29 29 29
19 20 20 21 22 22 22 21 19 17 16 15 14 14 12 10 8 7 6 7 10 13 15 18 21 24 25 27 28 28 29 30 31 32 32 31 32 32 32 31 31 30 30
19 20 21 22 22 22 23 22 22 20 18 16 15 14 14 12 9 7 6 5 5 7 10 13 15 18 21 23 25 26 28 29 31 32 33 33 32 32 33 33 33 32 31
20 21 21 22 22 22 22 23 23 23 21 20 18 17 16 15 12 10 8 7 5 5 6 8 11 13 16 19 21 24 26 28 30 32 32 32 32 32 33 33 34 33 32
19 20 21 21 22 22 23 23 23 23 23 22 20 19 18 17 15 13 11 10 8 6 5 6 8 11 14 17 19 21 23 26 28 30 31 32 32 32 32 33 33 32 31
20 20 21 21 21 22 23 23 23 23 23 22 21 20 19 18 17 16 14 12 10 9 7 6 7 9 11 14 16 19 21 23 25 27 29 30 31 31 31 30 30 30 30
20 20 20 21 21 21 22 23 23 23 23 23 22 21 21 20 19 18 16 14 13 11 10 9 9 9 11 13 15 17 19 21 22 23 25 26 27 28 29 29 28 28 28
20 20 20 20 21 21 22 23 23 23 23 23 22 22 21 21 20 19 18 16 15 13 12 11 11 11 11 12 13 15 16 18 19 20 22 23 25 26 26 26 25 26 25
20 20 20 20 20 21 22 22 23 23 23 22 22 22 22 22 21 21 20 18 17 17 16 15 14 13 12 12 12 13 14 15 17 18 20 21 22 22 23 23 23 22 21
19 19 19 19 20 20 21 22 23 23 23 23 22 22 22 22 22 22 21 20 19 19 19 18 16 15 14 13 12 12 13 14 15 16 17 17 18 19 20 20 20 20 18
18 18 18 18 19 20 20 21 22 23 24 24 23 23 23 23 23 23 23 22 21 21 20 19 18 17 15 13 11 10 10 11 13 14 14 15 16 16 17 18 18 18 18
17 17 17 18 18 18 19 20 21 22 23 24 24 23 23 23 23 24 24 23 23 22 22 21 20 19 17 14 11 8 7 8 9 10 12 13 15 15 16 17 17 17 18
16 16 16 17 17 17 18 19 20 21 22 23 24 24 24 24 24 24 25 25 24 24 23 22 21 20 19 16 12 8 5 3 5 7 9 11 14 15 16 16 15 15 17
15 15 15 16 16 16 17 18 19 20 21 22 23 24 24 24 24 25 25 25 25 25 24 24 23 22 20 18 14 10 6 3 3 5 8 11 13 15 16 16 16 15 14
15 15 15 15 15 15 16 17 18 18 19 20 22 23 23 24 24 25 25 25 25 26 25 24 24 24 23 20 17 13 10 8 8 8 9 11 13 15 16 16 15 16 15
14 14 14 14 14 15 15 16 16 17 18 19 20 21 22 24 24 24 25 25 25 26 26 25 25 24 24 23 21 18 16 14 13 13 13 13 14 15 16 16 15 14 14
13 13 13 13 14 14 14 15 15 15 16 17 18 20 21 22 23 24 24 25 25 25 26 26 25 25 25 24 23 20 19 18 17 17 16 16 16 16 16 16 15 14 14
Wind_Direction
289 287 286 284 282 281 280 279 277 275 272 270 268 267 266 266 266 266 266 264 261 260 258 256 256 254 252 249 248 247 243 240 239 239 240 242 242 242 244 244 244 243 242
293 292 290 288 286 284 284 282 280 278 274 271 269 268 267 265 264 264 264 263 261 259 259 258 256 256 253 251 250 250 246 244 242 241 239 240 242 243 243 244 245 246 245
297 296 294 292 290 288 287 286 283 280 277 274 270 268 267 267 265 263 262 262 261 258 258 258 256 256 255 252 252 252 248 245 243 240 237 238 240 241 243 244 246 248 248
305 303 300 298 296 294 293 292 289 284 279 276 273 269 267 266 264 261 260 260 259 258 257 255 256 254 252 252 252 250 248 245 244 240 239 240 239 242 244 245 246 248 249
318 314 311 308 306 304 303 302 298 292 287 282 278 274 270 266 263 260 257 256 256 256 255 253 255 253 250 248 248 248 247 244 240 238 238 239 239 240 242 245 246 247 248
334 332 327 324 320 317 315 314 308 303 297 292 286 281 275 269 263 258 255 253 252 252 252 250 249 249 248 247 246 246 247 243 241 239 238 238 239 238 241 244 243 243 246
354 352 348 344 340 336 333 329 322 317 311 304 296 288 280 272 264 258 254 251 248 247 246 247 245 244 243 244 245 244 245 242 240 239 238 239 239 240 242 244 244 243 245
2 2 2 0 358 357 355 351 346 338 332 325 315 302 289 279 269 260 254 250 246 243 242 242 242 243 243 241 241 240 240 239 239 238 238 240 238 239 242 243 244 243 244
15 16 16 15 13 10 8 5 1 357 352 347 341 331 313 297 285 270 257 251 245 242 242 242 241 241 241 241 238 237 237 236 237 238 237 239 237 237 239 242 244 245 245
22 22 20 19 18 16 15 12 9 5 3 1 359 353 349 332 311 293 273 257 249 245 243 241 239 240 242 242 240 238 236 236 238 238 238 240 240 239 239 241 243 246 247
24 23 23 21 21 20 18 16 16 15 13 10 9 7 3 357 349 337 314 278 255 249 245 242 240 237 238 240 240 240 238 238 239 239 240 241 242 242 241 242 244 246 248
26 25 24 24 24 24 25 26 26 25 23 22 20 18 15 12 10 1 348 328 293 263 251 246 244 242 242 243 243 243 242 241 240 240 240 242 242 243 243 244 246 248 250
23 23 24 25 25 26 26 28 28 29 29 29 28 28 27 27 25 21 16 4 344 312 283 260 253 249 248 248 247 245 244 244 243 242 243 244 244 244 245 246 248 249 251
21 21 22 23 24 26 27 27 28 29 29 31 32 32 31 30 30 28 24 18 11 355 325 291 270 261 258 256 253 250 247 246 246 245 245 244 245 246 247 248 249 251 251
23 23 23 24 26 27 28 28 28 29 29 30 31 31 31 29 29 27 24 21 17 10 356 331 303 284 273 265 260 256 251 248 247 246 246 246 245 246 248 249 250 250 251
23 23 23 24 26 27 27 28 28 29 29 29 29 29 29 28 27 25 23 19 17 12 0 345 326 306 292 280 271 265 258 251 249 248 246 246 246 245 245 247 247 247 248
21 21 22 24 25 26 26 26 26 25 26 26 27 26 26 26 24 23 20 18 15 9 2 351 338 324 310 294 281 271 264 254 249 249 247 245 244 242 243 242 242 243 244
20 20 21 22 23 24 25 25 24 23 24 24 25 24 23 23 22 21 19 17 14 9 3 355 346 336 324 309 293 279 267 256 249 247 248 245 239 237 236 237 239 238 238
17 18 19 21 22 23 24 24 24 24 23 23 23 22 21 20 19 18 17 15 13 10 6 1 355 345 333 321 307 291 273 259 250 246 245 241 233 228 227 227 229 229 225
13 15 17 19 20 21 22 23 23 23 23 23 22 21 20 18 17 16 16 14 13 10 8 5 1 355 346 335 320 303 284 263 250 243 237 230 222 216 214 212 214 214 213
10 12 14 16 18 19 20 21 21 22 22 22 22 21 19 18 18 17 17 16 14 12 11 8 5 2 358 352 341 323 296 271 250 235 225 217 211 208 201 198 200 202 203
8 9 10 12 14 16 17 18 19 21 22 22 22 21 20 19 18 18 18 17 16 15 14 12 10 8 6 5 3 357 339 285 232 214 207 199 192 189 186 186 186 189 193
5 7 8 9 11 13 14 15 17 18 20 21 21 21 20 20 19 19 19 19 19 18 18 18 18 17 16 17 20 26 34 54 141 162 166 170 171 171 170 170 170 171 177
359 1 3 5 7 9 11 13 14 16 17 18 19 21 21 21 21 21 21 21 21 22 23 25 25 26 28 30 36 45 56 74 100 121 135 144 147 155 158 159 162 164 165
350 353 356 358 0 3 5 7 10 13 15 16 17 18 20 21 22 22 23 23 25 26 28 30 32 34 36 40 45 53 63 76 93 105 118 127 131 137 145 151 152 154 157
339 343 347 349 353 356 358 1 4 7 10 13 15 17 19 20 22 23 24 25 27 29 31 34 37 39 42 45 49 57 65 76 87 98 108 115 121 131 137 141 144 147 149
Height
5841 5839 5837 5835 5833 5831 5829 5828 5827 5827 5826 5826 5826 5827 5828 5829 5831 5834 5836 5839 5842 5844 5847 5850 5852 5855 5858 5861 5864 5866 5868 5871 5874 5877 5880 5882 5884 5887 5889 5891 5893 5895 5897
5834 5831 5829 5826 5824 5822 5820 5817 5816 5815 5814 5814 5814 5815 5816 5817 5820 5822 5825 5828 5832 5835 5837 5840 5844 5847 5850 5853 5856 5859 5861 5864 5867 5870 5873 5875 5878 5880 5883 5885 5887 5889 5891
5827 5824 5821 5818 5816 5813 5811 5808 5806 5804 5803 5803 5803 5803 5804 5805 5808 5810 5813 5817 5820 5824 5828 5831 5834 5837 5841 5845 5848 5851 5854 5857 5859 5863 5866 5868 5871 5873 5876 5879 5881 5883 5885
5821 5818 5815 5812 5809 5806 5803 5800 5798 5796 5794 5793 5792 5792 5793 5794 5796 5798 5801 5805 5809 5813 5817 5821 5824 5829 5833 5836 5840 5844 5846 5849 5852 5855 5858 5861 5864 5867 5870 5872 5875 5876 5879
5817 5814 5810 5807 5804 5801 5797 5794 5791 5788 5786 5784 5783 5783 5783 5784 5785 5787 5790 5794 5798 5802 5806 5811 5815 5820 5824 5828 5832 5836 5838 5841 5844 5847 5850 5853 5857 5860 5862 5865 5868 5870 5872
5814 5810 5807 5803 5800 5796 5793 5789 5786 5783 5780 5778 5777 5775 5775 5775 5776 5778 5781 5784 5788 5792 5796 5801 5805 5810 5815 5819 5823 5827 5830 5833 5836 5840 5842 5846 5849 5853 5855 5858 5860 5863 5866
5813 5809 5805 5802 5798 5794 5790 5786 5783 5779 5776 5774 5772 5770 5769 5769 5769 5771 5773 5776 5779 5782 5787 5791 5796 5801 5805 5809 5813 5818 5821 5824 5828 5831 5835 5838 5841 5845 5847 5850 5853 5856 5859
5814 5809 5805 5801 5797 5793 5789 5785 5781 5777 5774 5771 5769 5767 5765 5765 5765 5765 5767 5769 5771 5775 5779 5783 5787 5792 5796 5800 5804 5808 5812 5815 5818 5822 5826 5829 5833 5836 5839 5842 5845 5848 5851
5815 5810 5806 5802 5797 5793 5789 5785 5781 5777 5774 5770 5767 5765 5763 5762 5761 5761 5762 5764 5766 5769 5772 5776 5779 5784 5788 5791 5795 5799 5802 5806 5809 5813 5817 5821 5824 5828 5831 5834 5837 5840 5843
5816 5812 5808 5803 5799 5794 5790 5786 5782 5778 5774 5771 5768 5765 5763 5761 5760 5759 5759 5760 5762 5764 5766 5769 5773 5776 5780 5783 5787 5789 5793 5797 5801 5805 5808 5812 5816 5819 5822 5826 5829 5832 5836
5819 5815 5810 5806 5801 5797 5792 5788 5783 5779 5776 5772 5769 5766 5763 5761 5759 5758 5758 5758 5759 5760 5761 5764 5767 5770 5773 5776 5779 5782 5785 5789 5792 5797 5801 5804 5808 5811 5814 5818 5821 5825 5828
5822 5817 5813 5809 5804 5800 5795 5790 5786 5782 5778 5774 5771 5767 5764 5762 5760 5759 5758 5758 5757 5757 5758 5760 5762 5764 5767 5769 5772 5775 5778 5781 5785 5789 5792 5796 5799 5803 5806 5810 5813 5816 5819
5824 5820 5816 5812 5807 5803 5798 5794 5789 5785 5781 5777 5773 5770 5767 5764 5762 5760 5759 5758 5757 5757 5757 5758 5759 5761 5762 5764 5766 5768 5771 5774 5777 5781 5784 5788 5791 5795 5798 5802 5805 5808 5811
5827 5823 5819 5815 5810 5806 5802 5797 5793 5789 5784 5780 5777 5773 5770 5767 5765 5762 5761 5759 5758 5757 5756 5757 5757 5758 5758 5759 5761 5762 5764 5767 5770 5773 5776 5779 5783 5786 5790 5793 5796 5800 5803
5830 5826 5822 5818 5814 5810 5805 5801 5797 5793 5788 5784 5780 5777 5773 5770 5767 5765 5763 5760 5759 5757 5756 5756 5755 5755 5755 5755 5756 5757 5758 5760 5762 5765 5768 5771 5774 5777 5781 5784 5788 5791 5795
5833 5829 5825 5821 5817 5813 5809 5805 5801 5797 5792 5788 5784 5781 5777 5774 5770 5767 5765 5762 5760 5758 5756 5755 5754 5752 5752 5751 5751 5751 5752 5754 5756 5758 5760 5763 5766 5770 5773 5777 5780 5784 5787
5835 5832 5828 5824 5820 5816 5812 5808 5804 5800 5796 5792 5788 5784 5780 5777 5773 5770 5767 5764 5761 5759 5756 5754 5752 5750 5748 5746 5746 5745 5746 5747 5749 5751 5754 5756 5759 5762 5766 5769 5773 5777 5781
5838 5834 5831 5827 5823 5819 5815 5811 5808 5803 5799 5795 5791 5787 5783 5780 5776 5772 5769 5765 5762 5759 5756 5753 5750 5747 5745 5743 5741 5741 5741 5742 5743 5745 5747 5750 5753 5756 5760 5763 5767 5771 5775
5841 5837 5834 5830 5826 5822 5819 5815 5811 5807 5803 5798 5794 5790 5786 5782 5778 5774 5770 5767 5763 5759 5755 5752 5748 5745 5742 5739 5737 5736 5736 5736 5738 5739 5742 5744 5747 5751 5754 5758 5762 5766 5771
5843 5839 5836 5832 5829 5825 5821 5818 5814 5810 5806 5801 5797 5793 5789 5785 5781 5776 5772 5768 5764 5760 5755 5751 5747 5743 5739 5736 5733 5731 5731 5731 5732 5734 5737 5740 5743 5746 5750 5754 5758 5763 5767
5845 5842 5838 5835 5832 5828 5824 5821 5817 5813 5809 5805 5800 5796 5792 5787 5783 5779 5774 5769 5765 5760 5756 5751 5746 5742 5737 5733 5730 5728 5727 5727 5728 5730 5733 5736 5739 5743 5747 5751 5756 5760 5765
5846 5843 5840 5837 5834 5830 5827 5824 5820 5816 5812 5808 5803 5799 5795 5790 5786 5781 5776 5771 5766 5762 5757 5752 5747 5741 5736 5732 5728 5726 5725 5725 5726 5727 5730 5733 5737 5741 5745 5750 5754 5759 5763
5848 5845 5842 5839 5836 5833 5829 5826 5822 5819 5815 5811 5807 5802 5798 5793 5788 5784 5779 5774 5769 5763 5758 5753 5748 5742 5737 5732 5729 5726 5725 5724 5725 5727 5729 5733 5736 5740 5745 5749 5754 5758 5762
5849 5846 5843 5840 5837 5834 5831 5828 5824 5821 5817 5814 5810 5805 5801 5796 5791 5786 5782 5777 5772 5766 5761 5756 5751 5745 5740 5735 5731 5729 5727 5726 5727 5728 5731 5734 5737 5741 5746 5750 5754 5758 5763
5849 5847 5844 5841 5839 5836 5833 5830 5826 5823 5820 5816 5812 5808 5804 5799 5795 5790 5785 5780 5775 5770 5765 5760 5755 5750 5745 5741 5737 5734 5732 5731 5731 5732 5734 5737 5741 5744 5748 5752 5756 5760 5764
5849 5847 5844 5842 5839 5836 5834 5831 5828 5825 5822 5818 5815 5811 5807 5803 5798 5793 5789 5784 5779 5775 5770 5765 5760 5756 5751 5747 5743 5740 5738 5737 5737 5738 5740 5742 5745 5748 5751 5755 5759 5762 5765